Location: Arrodets-la-Barthe
(43.0306°N, 0.2829°E)
Time: 11:22:55
(UTC+00:00)

Iridium 4 Rocket - Pass Details

Date: 29 May 2022
Orbit: 585 x 902 km, 86.9° (Epoch: 01 July)

Event Time Altitude Azimuth Distance (km) Brightness Sun altitude
Rises 21:36:19 0° 11° (N) 3,026 7.3 -17.7°
Reaches altitude 10° 21:38:54 10° 25° (NNE) 2,159 6.2 -17.9°
Maximum altitude 21:42:50 25° 80° (E) 1,469 4.7 -18.3°
Enters shadow 21:43:59 23° 101° (E) 1,564 4.7 -18.4°
